User: anonymous   Login
Location: Unspecified
(0.0000°N, 0.0000°E)
Time: 02:01:25
(UTC+00:00)
Language:

Tiros 1 - Orbit

View from above orbital plane
View from above orbital plane
View from above satellite
View from above satellite

Ground track
Ground track

The orbit data is extracted from the following two-line orbital elements,

1    29U 60002B   17147.59482400 -.00000113 +00000-0 +14228-4 0  9998
2    29 048.3783 178.7170 0023676 136.1551 224.1245 14.74167382053868
Epoch (UTC): 27 May 2017 14:16:32
Eccentricity: 0.0023676
inclination: 48.3783°
perigee height: 631 km
apogee height: 664 km
right ascension of ascending node: 178.7170°
argument of perigee: 136.1551°
revolutions per day: 14.74167382
mean anomaly at epoch: 224.1245°
orbit number at epoch: 5386

The dashed part of the orbit path shows where the satellite is in the earth's shadow,  

DLR